JO1YDG-13 Weather Reports


time (UTC)temp
C
wind
direction
speed
KPH
gust
KPH
rain 1hr
cm
rain 24hr
cm
rain mn
cm
humidity
%
barometer
mb
20260509162052 11 292 1.6 1.6 0.00 0.00 0.00 48 989.8
20260509161551 11 324 1.6 1.6 0.00 0.00 0.00 48 989.7
20260509161051 11 308 3.2 3.2 0.00 0.00 0.00 48 989.7
20260509160553 11 238 1.6 1.6 0.00 0.00 0.00 48 989.7
20260509160053 12 250 1.6 1.6 0.00 0.00 0.00 48 989.7
20260509155553 11 226 3.2 3.2 0.00 0.00 0.00 50 989.7
20260509155052 11 143 1.6 1.6 0.00 0.00 0.00 49 989.7
20260509154552 11 270 3.2 3.2 0.00 0.00 0.00 49 989.7
20260509154052 11 282 1.6 1.6 0.00 0.00 0.00 48 989.7
20260509153552 11 22 0.0 0.0 0.00 0.00 0.00 49 989.7
20260509153051 11 259 1.6 1.6 0.00 0.00 0.00 49 989.7
20260509152551 11 238 1.6 1.6 0.00 0.00 0.00 49 989.6
20260509152053 12 354 0.0 0.0 0.00 0.00 0.00 48 989.6
20260509151553 12 192 3.2 3.2 0.00 0.00 0.00 48 989.6
20260509151053 12 180 0.0 0.0 0.00 0.00 0.00 47 989.6
20260509150552 12 270 0.0 0.0 0.00 0.00 0.00 46 989.6
20260509150052 12 191 0.0 0.0 0.00 0.00 0.00 46 989.4
20260509145552 12 234 3.2 3.2 0.00 0.00 0.00 45 989.4
20260509145052 12 248 1.6 1.6 0.00 0.00 0.00 44 989.3
20260509144551 12 190 1.6 1.6 0.00 0.00 0.00 44 989.3
20260509144051 12 121 3.2 3.2 0.00 0.00 0.00 44 989.3
20260509143553 13 112 3.2 3.2 0.00 0.00 0.00 44 989.1
20260509143053 13 79 4.8 4.8 0.00 0.00 0.00 43 989.1
20260509142553 13 356 3.2 3.2 0.00 0.00 0.00 43 988.9
20260509142051 13 79 3.2 8.0 0.00 0.00 0.00 43 988.9
20260509141551 13 112 3.2 4.8 0.00 0.00 0.00 43 988.9
20260509141053 13 131 3.2 3.2 0.00 0.00 0.00 42 988.8
20260509140553 14 101 1.6 3.2 0.00 0.00 0.00 41 988.8
20260509140052 14 37 3.2 4.8 0.00 0.00 0.00 39 988.7
20260509135552 14 347 4.8 8.0 0.00 0.00 0.00 39 988.7
20260509135052 14 68 3.2 1.6 0.00 0.00 0.00 39 988.7
20260509134553 15 90 1.6 3.2 0.00 0.00 0.00 38 988.7
20260509134053 15 132 4.8 8.0 0.00 0.00 0.00 37 988.7
20260509133552 15 0 8.0 8.0 0.00 0.00 0.00 36 988.5
20260509133052 15 251 4.8 8.0 0.00 0.00 0.00 37 988.5
20260509132552 15 23 3.2 4.8 0.00 0.00 0.00 38 988.4
20260509132052 15 324 4.8 8.0 0.00 0.00 0.00 40 988.4
20260509131551 15 168 1.6 1.6 0.00 0.00 0.00 42 988.4
20260509131051 15 227 4.8 4.8 0.00 0.00 0.00 45 988.4
20260509130553 15 143 3.2 3.2 0.00 0.00 0.00 47 988.4
20260509130053 15 154 4.8 4.8 0.00 0.00 0.00 44 988.3
20260509125552 16 161 3.2 3.2 0.00 0.00 0.00 39 988.3
20260509125052 16 195 3.2 4.8 0.00 0.00 0.00 35 988.2
20260509124552 16 308 8.0 9.7 0.00 0.00 0.00 34 988.2
20260509124052 16 265 4.8 11.3 0.00 0.00 0.00 34 988.2
20260509123552 16 282 4.8 9.7 0.00 0.00 0.00 34 988.1
20260509123051 16 255 4.8 4.8 0.00 0.00 0.00 33 988.1
20260509122551 17 278 4.8 8.0 0.00 0.00 0.00 33 988.0
20260509122053 17 285 3.2 4.8 0.00 0.00 0.00 34 988.0
20260509121553 17 260 4.8 4.8 0.00 0.00 0.00 33 988.0
20260509121053 17 274 4.8 4.8 0.00 0.00 0.00 34 987.8
20260509120552 17 325 4.8 4.8 0.00 0.00 0.00 37 987.8
20260509120051 17 267 3.2 4.8 0.00 0.00 0.00 43 987.7
20260509115553 17 338 4.8 8.0 0.00 0.00 0.00 46 987.7
20260509115053 17 288 4.8 4.8 0.00 0.00 0.00 49 987.6
20260509114552 17 323 4.8 4.8 0.00 0.00 0.00 49 987.6
20260509114052 17 334 3.2 4.8 0.00 0.00 0.00 50 987.6
20260509113552 17 288 4.8 4.8 0.00 0.00 0.00 50 987.5
20260509113052 17 301 8.0 9.7 0.00 0.00 0.00 50 987.5
20260509112552 17 273 4.8 9.7 0.00 0.00 0.00 50 987.2
20260509112052 17 258 4.8 8.0 0.00 0.00 0.00 50 987.2
20260509111551 17 240 4.8 8.0 0.00 0.00 0.00 50 987.2
20260509111051 17 283 3.2 3.2 0.00 0.00 0.00 49 986.8
20260509110553 17 280 4.8 4.8 0.00 0.00 0.00 49 986.8
20260509110052 17 238 8.0 9.7 0.00 0.00 0.00 49 986.6
20260509105552 17 186 8.0 8.0 0.00 0.00 0.00 49 986.6
20260509105051 17 284 8.0 9.7 0.00 0.00 0.00 49 986.4
20260509104553 17 281 8.0 8.0 0.00 0.00 0.00 49 986.4
20260509104053 17 152 1.6 3.2 0.00 0.00 0.00 49 986.4
20260509103553 17 304 3.2 4.8 0.00 0.00 0.00 49 986.1
20260509103052 18 216 4.8 8.0 0.00 0.00 0.00 48 986.1
20260509102552 18 229 4.8 4.8 0.00 0.00 0.00 48 985.9
20260509102052 18 231 3.2 3.2 0.00 0.00 0.00 47 985.9
20260509101551 18 233 8.0 8.0 0.00 0.00 0.00 47 985.9
20260509101051 18 270 8.0 8.0 0.00 0.00 0.00 47 985.6
20260509100553 18 250 4.8 4.8 0.00 0.00 0.00 47 985.6
20260509100053 18 257 3.2 3.2 0.00 0.00 0.00 47 985.2
20260509095553 18 243 4.8 9.7 0.00 0.00 0.00 46 985.2
20260509095052 19 291 4.8 4.8 0.00 0.00 0.00 46 985.1
20260509094552 19 234 9.7 11.3 0.00 0.00 0.00 45 985.1
20260509094052 19 157 4.8 9.7 0.00 0.00 0.00 45 985.1
20260509093552 19 225 4.8 8.0 0.00 0.00 0.00 44 984.9
20260509093051 20 218 8.0 9.7 0.00 0.00 0.00 43 984.9
20260509092551 20 238 8.0 8.0 0.00 0.00 0.00 42 984.6
20260509092053 20 215 4.8 4.8 0.00 0.00 0.00 41 984.6
20260509091553 20 211 4.8 9.7 0.00 0.00 0.00 40 984.6
20260509091053 21 244 4.8 9.7 0.00 0.00 0.00 39 984.3
20260509090552 21 202 9.7 9.7 0.00 0.00 0.00 39 984.3
20260509090052 21 287 9.7 11.3 0.00 0.00 0.00 38 983.9
20260509085552 21 284 11.3 14.5 0.00 0.00 0.00 37 983.9
20260509085052 21 265 8.0 12.9 0.00 0.00 0.00 37 983.7
20260509084552 21 269 9.7 14.5 0.00 0.00 0.00 37 983.7
20260509084052 22 239 11.3 16.1 0.00 0.00 0.00 35 983.7
20260509083551 22 236 8.0 11.3 0.00 0.00 0.00 35 983.6
20260509083053 22 215 9.7 11.3 0.00 0.00 0.00 33 983.6
20260509082553 22 257 11.3 11.3 0.00 0.00 0.00 33 983.2
20260509082052 23 225 9.7 14.5 0.00 0.00 0.00 29 983.2
20260509081552 23 340 9.7 14.5 0.00 0.00 0.00 21 983.2
20260509081052 23 2 11.3 9.7 0.00 0.00 0.00 21 983.0
20260509080552 23 36 16.1 19.3 0.00 0.00 0.00 21 983.0
20260509080052 23 340 16.1 19.3 0.00 0.00 0.00 21 983.0
20260509075551 23 293 11.3 11.3 0.00 0.00 0.00 21 983.0
20260509075053 23 307 14.5 16.1 0.00 0.00 0.00 21 982.8
20260509074553 23 343 12.9 19.3 0.00 0.00 0.00 21 982.8
20260509074053 24 12 16.1 20.9 0.00 0.00 0.00 21 982.8
20260509073553 23 331 14.5 20.9 0.00 0.00 0.00 22 982.7
20260509073052 23 5 12.9 19.3 0.00 0.00 0.00 21 982.7
20260509072552 24 64 14.5 19.3 0.00 0.00 0.00 21 982.6
20260509072052 24 332 12.9 20.9 0.00 0.00 0.00 21 982.6
20260509071552 24 23 12.9 16.1 0.00 0.00 0.00 21 982.6
20260509071052 24 357 14.5 16.1 0.00 0.00 0.00 21 982.2
20260509070551 24 335 16.1 24.1 0.00 0.00 0.00 21 982.2
20260509070053 24 41 16.1 20.9 0.00 0.00 0.00 21 982.2
20260509065553 24 353 14.5 22.5 0.00 0.00 0.00 21 982.2
20260509065053 25 31 16.1 16.1 0.00 0.00 0.00 21 981.9
20260509064553 25 313 14.5 16.1 0.00 0.00 0.00 21 981.9
20260509064052 25 43 12.9 19.3 0.00 0.00 0.00 22 981.9
20260509063552 24 324 16.1 22.5 0.00 0.00 0.00 22 982.1
20260509063052 24 32 19.3 20.9 0.00 0.00 0.00 22 982.1
20260509062552 24 26 16.1 24.1 0.00 0.00 0.00 22 982.0
20260509062051 25 334 20.9 24.1 0.00 0.00 0.00 22 982.0
20260509061551 25 337 19.3 19.3 0.00 0.00 0.00 22 982.0
20260509061053 25 357 16.1 19.3 0.00 0.00 0.00 21 982.0
20260509060553 25 358 19.3 24.1 0.00 0.00 0.00 21 982.0
20260509060052 25 297 12.9 16.1 0.00 0.00 0.00 22 981.9
20260509055551 25 358 14.5 19.3 0.00 0.00 0.00 21 981.9
20260509055053 25 310 11.3 12.9 0.00 0.00 0.00 21 982.0
20260509054553 25 15 14.5 22.5 0.00 0.00 0.00 21 982.0
20260509054053 24 9 12.9 16.1 0.00 0.00 0.00 21 982.0
20260509053553 24 356 12.9 24.1 0.00 0.00 0.00 21 982.0
20260509053052 24 14 22.5 25.7 0.00 0.00 0.00 21 982.0
20260509052552 25 342 14.5 20.9 0.00 0.00 0.00 21 982.2
20260509052052 24 358 19.3 24.1 0.00 0.00 0.00 22 982.2
20260509051552 24 51 9.7 22.5 0.00 0.00 0.00 23 982.2
20260509051052 24 3 24.1 32.2 0.00 0.00 0.00 22 982.0
20260509050551 25 315 12.9 24.1 0.00 0.00 0.00 22 982.0
20260509050053 24 352 16.1 20.9 0.00 0.00 0.00 21 982.1
20260509045553 25 335 25.7 27.4 0.00 0.00 0.00 22 982.1
20260509045053 24 352 20.9 27.4 0.00 0.00 0.00 22 982.2
20260509044552 24 315 22.5 25.7 0.00 0.00 0.00 22 982.2
20260509044052 25 319 22.5 29.0 0.00 0.00 0.00 22 982.2
20260509043552 25 24 16.1 22.5 0.00 0.00 0.00 22 982.2
20260509043052 24 357 20.9 24.1 0.00 0.00 0.00 21 982.2
20260509042551 24 322 20.9 22.5 0.00 0.00 0.00 21 982.3
20260509042053 25 338 14.5 24.1 0.00 0.00 0.00 21 982.3
20260509041553 24 329 20.9 19.3 0.00 0.00 0.00 21 982.2
20260509041053 24 329 24.1 25.7 0.00 0.00 0.00 21 982.2
20260509040552 24 324 20.9 16.1 0.00 0.00 0.00 21 982.2
20260509040052 24 315 20.9 24.1 0.00 0.00 0.00 21 982.2
20260509035552 25 358 19.3 29.0 0.00 0.00 0.00 22 982.2
20260509035052 24 351 20.9 24.1 0.00 0.00 0.00 21 982.1
20260509034551 25 334 19.3 20.9 0.00 0.00 0.00 21 982.1
20260509034051 24 327 19.3 20.9 0.00 0.00 0.00 22 982.1
20260509033553 24 319 20.9 19.3 0.00 0.00 0.00 22 982.3
20260509033053 24 2 14.5 14.5 0.00 0.00 0.00 21 982.3
20260509032553 24 351 16.1 19.3 0.00 0.00 0.00 22 982.2
20260509032052 24 36 20.9 22.5 0.00 0.00 0.00 21 982.2
20260509031552 23 331 16.1 14.5 0.00 0.00 0.00 21 982.3
20260509031052 23 59 20.9 25.7 0.00 0.00 0.00 22 982.4
20260509030552 24 14 19.3 25.7 0.00 0.00 0.00 21 982.4
20260509030052 24 353 16.1 24.1 0.00 0.00 0.00 21 982.4
20260509025552 23 29 19.3 22.5 0.00 0.00 0.00 21 982.4
20260509025051 23 346 19.3 20.9 0.00 0.00 0.00 23 982.5
20260509024553 23 338 22.5 25.7 0.00 0.00 0.00 22 982.5
20260509024053 24 321 20.9 27.4 0.00 0.00 0.00 22 982.5
20260509023553 23 349 12.9 16.1 0.00 0.00 0.00 25 982.5
20260509023053 23 345 14.5 19.3 0.00 0.00 0.00 25 982.5
20260509022552 23 19 19.3 22.5 0.00 0.00 0.00 24 982.7
20260509022052 23 358 12.9 20.9 0.00 0.00 0.00 25 982.7
20260509021552 23 354 16.1 16.1 0.00 0.00 0.00 26 982.7
20260509021052 23 345 20.9 25.7 0.00 0.00 0.00 25 982.8
20260509020551 23 31 12.9 12.9 0.00 0.00 0.00 26 982.8
20260509020053 23 22 14.5 16.1 0.00 0.00 0.00 26 983.0
20260509015553 23 328 14.5 16.1 0.00 0.00 0.00 27 983.0
20260509015052 22 4 12.9 14.5 0.00 0.00 0.00 26 982.8
20260509014552 23 9 14.5 25.7 0.00 0.00 0.00 26 982.8
20260509014052 23 338 16.1 20.9 0.00 0.00 0.00 27 982.8
20260509013552 23 31 11.3 16.1 0.00 0.00 0.00 28 983.0
20260509013051 22 347 24.1 25.7 0.00 0.00 0.00 28 983.0
20260509012551 22 10 20.9 33.8 0.00 0.00 0.00 28 983.0
20260509012053 22 307 22.5 22.5 0.00 0.00 0.00 29 983.0
20260509011552 22 57 12.9 20.9 0.00 0.00 0.00 30 982.9
20260509011052 22 358 19.3 19.3 0.00 0.00 0.00 29 982.9
20260509010551 22 330 19.3 22.5 0.00 0.00 0.00 30 982.9
20260509010053 22 352 12.9 19.3 0.00 0.00 0.00 30 982.7
20260509005552 22 74 12.9 16.1 0.00 0.00 0.00 30 982.7
20260509005052 22 327 16.1 20.9 0.00 0.00 0.00 29 982.7
20260509004551 21 13 16.1 22.5 0.00 0.00 0.00 29 982.7
20260509004051 21 350 22.5 24.1 0.00 0.00 0.00 30 982.7
20260509003553 21 0 16.1 22.5 0.00 0.00 0.00 29 982.4
20260509003053 21 356 25.7 35.4 0.00 0.00 0.00 27 982.4
20260509002553 22 0 20.9 27.4 0.00 0.00 0.00 28 982.3
20260509002052 21 350 27.4 37.0 0.00 0.00 0.00 28 982.3
20260509001552 21 332 16.1 22.5 0.00 0.00 0.00 28 982.1
20260509001052 21 342 20.9 29.0 0.00 0.00 0.00 28 982.1
20260509000552 21 358 20.9 22.5 0.00 0.00 0.00 29 982.1
20260509000051 21 325 20.9 24.1 0.00 0.00 0.00 29 982.1
20260508235553 21 10 25.7 25.7 0.00 0.00 0.00 29 982.1
20260508235053 21 338 22.5 22.5 0.00 0.00 0.00 29 982.0
20260508234553 21 0 20.9 24.1 0.00 0.00 0.00 29 982.0
20260508234053 21 351 20.9 27.4 0.00 0.00 0.00 29 982.0
20260508233552 21 127 8.0 11.3 0.00 0.00 0.00 30 981.9
20260508233052 20 38 11.3 9.7 0.00 0.00 0.00 31 981.9
20260508232552 20 333 11.3 11.3 0.00 0.00 0.00 31 981.9
20260508232052 20 27 11.3 14.5 0.00 0.00 0.00 30 981.9
20260508231552 20 266 9.7 11.3 0.00 0.00 0.00 31 981.8
20260508231051 20 331 8.0 9.7 0.00 0.00 0.00 31 981.8
20260508230551 19 312 8.0 11.3 0.00 0.00 0.00 32 981.8
20260508230053 19 332 16.1 16.1 0.00 0.00 0.00 32 981.6
20260508225553 19 295 12.9 14.5 0.00 0.00 0.00 32 981.6
20260508225053 19 1 11.3 12.9 0.00 0.00 0.00 33 981.6
20260508224552 19 353 8.0 11.3 0.00 0.00 0.00 33 981.6
20260508224052 18 133 4.8 8.0 0.00 0.00 0.00 34 981.6
20260508223552 19 110 4.8 8.0 0.00 0.00 0.00 33 981.5
20260508223052 19 123 3.2 3.2 0.00 0.00 0.00 34 981.5
20260508222552 18 18 1.6 3.2 0.00 0.00 0.00 37 981.3
20260508222053 17 287 3.2 3.2 0.00 0.00 0.00 38 981.3
20260508221553 17 270 3.2 3.2 0.00 0.00 0.00 37 981.1
20260508221053 17 112 1.6 1.6 0.00 0.00 0.00 37 981.1
20260508220552 16 231 4.8 4.8 0.00 0.00 0.00 39 981.1
20260508220052 16 315 4.8 4.8 0.00 0.00 0.00 41 981.1
20260508215552 15 251 3.2 4.8 0.00 0.00 0.00 41 981.1
20260508215052 16 270 3.2 8.0 0.00 0.00 0.00 41 980.8
20260508214552 16 180 4.8 4.8 0.00 0.00 0.00 41 980.8
20260508214051 16 127 3.2 3.2 0.00 0.00 0.00 40 980.8
20260508213553 16 158 3.2 4.8 0.00 0.00 0.00 39 980.8
20260508213053 16 71 1.6 3.2 0.00 0.00 0.00 39 980.8
20260508212553 16 324 1.6 1.6 0.00 0.00 0.00 40 980.6
20260508212052 16 125 3.2 4.8 0.00 0.00 0.00 39 980.6
20260508211552 16 103 4.8 8.0 0.00 0.00 0.00 37 980.5
20260508211052 15 106 1.6 3.2 0.00 0.00 0.00 38 980.5
20260508210552 16 99 3.2 3.2 0.00 0.00 0.00 36 980.5
20260508210053 15 190 1.6 1.6 0.00 0.00 0.00 36 980.3
20260508205553 13 350 1.6 4.8 0.00 0.00 0.00 40 980.3
20260508205052 13 337 1.6 3.2 0.00 0.00 0.00 39 980.1
20260508204552 12 302 3.2 4.8 0.00 0.00 0.00 42 980.1
20260508204052 12 109 3.2 3.2 0.00 0.00 0.00 42 980.1
20260508203552 12 123 1.6 3.2 0.00 0.00 0.00 42 979.8
20260508203052 12 145 1.6 3.2 0.00 0.00 0.00 43 979.8
20260508202551 12 157 4.8 4.8 0.00 0.00 0.00 42 979.8
20260508202053 12 167 3.2 4.8 0.00 0.00 0.00 44 979.8
20260508201553 12 93 3.2 3.2 0.00 0.00 0.00 43 979.6
20260508201053 12 251 0.0 0.0 0.00 0.00 0.00 40 979.6
20260508200552 13 84 1.6 3.2 0.00 0.00 0.00 39 979.6
20260508200052 13 68 1.6 3.2 0.00 0.00 0.00 37 979.3
20260508195552 13 333 3.2 4.8 0.00 0.00 0.00 37 979.3
20260508195052 13 43 3.2 3.2 0.00 0.00 0.00 36 979.1
20260508194552 13 201 3.2 3.2 0.00 0.00 0.00 36 979.1
20260508194051 14 22 4.8 9.7 0.00 0.00 0.00 35 979.1
20260508193553 13 143 4.8 8.0 0.00 0.00 0.00 36 979.0
20260508193053 13 344 9.7 14.5 0.00 0.00 0.00 35 979.0
20260508192553 13 118 8.0 9.7 0.00 0.00 0.00 36 978.9
20260508192052 13 109 3.2 4.8 0.00 0.00 0.00 36 978.9
20260508191552 13 232 1.6 1.6 0.00 0.00 0.00 34 978.8
20260508191052 13 112 4.8 8.0 0.00 0.00 0.00 35 978.8
20260508190552 13 85 4.8 8.0 0.00 0.00 0.00 34 978.8
20260508190052 13 39 9.7 11.3 0.00 0.00 0.00 35 978.5
20260508185551 13 155 8.0 8.0 0.00 0.00 0.00 34 978.5
20260508185053 13 136 4.8 8.0 0.00 0.00 0.00 34 978.4
20260508184553 13 338 8.0 9.7 0.00 0.00 0.00 33 978.4
20260508184053 13 314 3.2 9.7 0.00 0.00 0.00 34 978.4
20260508183553 14 16 9.7 9.7 0.00 0.00 0.00 33 978.3
20260508183053 14 313 8.0 11.3 0.00 0.00 0.00 33 978.3
20260508182552 14 310 14.5 20.9 0.00 0.00 0.00 32 978.1
20260508182052 14 308 12.9 16.1 0.00 0.00 0.00 32 978.1
20260508181552 14 29 11.3 12.9 0.00 0.00 0.00 32 978.0
20260508181052 14 329 9.7 16.1 0.00 0.00 0.00 31 977.9
20260508180551 14 44 11.3 12.9 0.00 0.00 0.00 30 977.9
20260508180053 15 23 14.5 16.1 0.00 0.00 0.00 30 977.7
20260508175553 15 10 14.5 22.5 0.00 0.00 0.00 30 977.7
20260508175053 15 12 16.1 20.9 0.00 0.00 0.00 30 977.7
20260508174553 15 60 12.9 20.9 0.00 0.00 0.00 30 977.7
20260508174053 15 0 11.3 20.9 0.00 0.00 0.00 30 977.7
20260508173552 15 4 22.5 22.5 0.00 0.00 0.00 31 977.6
20260508173052 15 332 14.5 12.9 0.00 0.00 0.00 31 977.6
20260508172552 15 12 12.9 22.5 0.00 0.00 0.00 32 977.3
20260508172053 15 46 14.5 20.9 0.00 0.00 0.00 32 977.3
20260508171552 15 27 19.3 24.1 0.00 0.00 0.00 32 977.2
20260508171052 15 16 14.5 22.5 0.00 0.00 0.00 33 977.2
20260508170552 15 22 14.5 19.3 0.00 0.00 0.00 33 977.2
20260508170052 15 12 12.9 16.1 0.00 0.00 0.00 33 977.0
20260508165552 15 338 12.9 20.9 0.00 0.00 0.00 33 977.0
20260508165053 15 320 12.9 16.1 0.00 0.00 0.00 34 977.0
20260508164553 15 9 9.7 11.3 0.00 0.00 0.00 35 977.0
20260508164053 15 17 14.5 16.1 0.00 0.00 0.00 36 977.0
20260508163553 16 16 11.3 16.1 0.00 0.00 0.00 35 976.7
20260508163053 16 27 12.9 12.9 0.00 0.00 0.00 36 976.7
20260508162552 16 26 11.3 14.5 0.00 0.00 0.00 36 976.4